Location: Trois-Rivi�res
(46.3500°N, 72.5500°W)
Time: 19:02:55
(UTC-04:00)

Envisat - Pass Details

Date: 11 October 2017
Orbit: 764 x 766 km, 98.2° (Epoch: 22 October)

Event Time Altitude Azimuth Distance (km) Brightness Sun altitude
Exits shadow 22:10:56 13° 269° (W) 2,118 5.7 -40.1°
Maximum altitude 22:11:14 13° 273° (W) 2,115 5.7 -40.1°
Drops below altitude 10° 22:13:28 10° 299° (WNW) 2,309 6.1 -40.4°
Sets 22:17:13 0° 328° (NNW) 3,242 7.0 -40.9°
